[[{"header":{"parameterUnit":"m.s-1","parameterCategory":1,"la1":30.2991,"la2":30.254,"lo1":-89.0895,"lo2":-89.0444,"dy":0.0017,"dx":0.0017,"nx":28,"ny":28,"refTime":"2023-07-29T03:00:00:Z","depth":0,"parameterNumber":2,"parameterNumberName":"U-component_of_WINDS"},"data":[0,0,0,0,0,0,0,0,0,0,0,0,0,0,0,0,0,0,0,0,0,0,0,0,0,0,0,0,0,0,0,0,0,0,0,0,0,0,0,0,0,0,0,0,0,0,0,0,0,0,0,0,0,0,0,0,0,0,1.8199,1.8199,0,1.819,1.819,1.819,1.8119,1.8117,1.8116,1.8114,1.8106,1.8107,1.8109,0,0,0,0,0,0,0,0,0,0,0,0,0,1.8157,1.8158,1.8199,1.8199,1.8199,1.819,1.819,1.819,1.8119,1.8117,1.8115,1.8113,1.8106,1.8107,1.8109,0,0,0,0,0,0,0,0,0,0,0,0,0,1.8164,1.8159,1.8199,1.8163,1.816,1.819,1.819,1.819,1.812,1.8117,1.8115,1.8112,1.8105,1.8107,1.8109,1.8174,0,0,1.8115,1.8116,0,0,0,0,0,0,0,0,1.8164,1.8166,1.8168,1.8165,1.8162,1.8153,1.8172,1.8184,1.8121,1.8135,1.8114,1.8111,1.8124,1.8124,1.8128,1.8174,1.8173,1.8116,1.8117,1.8118,1.8118,0,0,0,0,0,0,0,1.8164,1.8166,1.8196,1.8168,1.8164,1.8147,1.8145,1.8174,1.8144,1.8134,1.8128,1.8128,1.8121,1.8126,1.8127,1.8173,1.8116,1.8117,1.8119,1.812,1.827,1.8272,0,0,0,0,0,0,1.8168,1.8166,1.8196,1.8195,1.8156,1.815,1.8148,1.8158,1.8144,1.8139,1.813,1.8125,1.8124,1.8125,1.8127,1.82,1.8118,1.812,1.8121,1.8267,1.827,1.8273,0,0,0,0,0,0,1.8167,1.8171,1.8196,1.8179,1.8181,1.8154,1.8166,1.816,1.8164,1.8141,1.8136,1.8141,1.8122,1.8124,1.8162,1.8199,1.8121,1.8123,1.8264,1.8268,1.8272,1.8349,0,0,0,0,0,0,1.8167,1.8172,1.8196,1.818,1.8182,1.8232,1.8168,1.8161,1.8168,1.8161,1.8149,1.8145,1.812,1.816,1.8164,1.8201,1.8124,1.826,1.8266,1.827,1.8343,1.8355,1.8366,0,0,0,0,0,1.8165,1.8219,1.8198,1.8202,1.8212,1.8234,1.8235,1.8205,1.8171,1.8195,1.818,1.8145,1.8195,1.8164,1.8169,1.8206,1.8258,1.8264,1.827,1.8338,1.8353,1.8366,0,0,0,0,0,0,1.8241,1.8216,1.8192,1.8243,1.8241,1.8222,1.8252,1.8222,1.823,1.8223,1.8186,1.8184,1.8228,1.8221,1.8187,1.8268,1.822,1.8227,1.827,1.8284,1.8295,1.8296,1.8126,0,0,0,0,0,1.8263,1.8283,1.8261,1.8307,1.8307,1.828,1.8289,1.8265,1.8262,1.8261,1.8249,1.8248,1.8262,1.8273,1.8286,1.8342,1.8338,1.837,1.8382,1.8391,1.8398,1.8425,1.8439,1.8293,1.8293,1.8293,0,0,1.831,1.8299,1.8314,1.8322,1.8318,1.8339,1.828,1.8305,1.832,1.8265,1.83,1.8291,1.8287,1.8334,1.8354,1.833,1.8437,1.8399,1.8407,1.8408,1.8433,1.8447,1.8459,1.8297,1.8297,1.8296,0,0,1.8406,1.84,1.8437,1.8434,1.8428,1.8409,1.8418,1.8404,1.8395,1.8429,1.8388,1.8405,1.8432,1.843,1.8433,1.8526,1.8494,1.8532,1.8591,1.8618,1.8629,1.8639,1.8671,1.8683,1.8539,1.8539,1.8539,0,1.8465,1.8494,1.846,1.8487,1.8492,1.8442,1.8479,1.8477,1.8477,1.848,1.8453,1.8484,1.8478,1.8523,1.8546,1.855,1.8559,1.8532,1.863,1.864,1.8649,1.8679,1.8691,1.8543,1.8543,1.8542,1.8542,0,1.8566,1.8588,1.8618,1.8617,1.8625,1.8657,1.8627,1.864,1.8615,1.8599,1.8634,1.8625,1.8634,1.8643,1.862,1.8685,1.8669,1.8637,1.8588,1.8668,1.8695,1.8706,1.855,1.8548,1.8547,1.8546,0,0,1.871,1.8688,1.87,1.8698,1.8687,1.8702,1.8732,1.874,1.875,1.8751,1.8774,1.8797,1.8767,1.877,1.8746,1.877,1.8843,1.8735,1.8734,1.8754,1.8911,1.8935,1.8948,1.8822,1.8824,1.8825,1.8911,0,1.8801,1.8849,1.8818,1.8871,1.8889,1.8842,1.8867,1.8863,1.8849,1.8862,1.8847,1.8863,1.8822,1.8823,1.8845,1.8829,1.8874,1.8823,1.8842,1.8843,1.8843,1.8963,1.8988,1.907,1.8922,1.8923,1.8925,0,1.8913,1.8917,1.8971,1.8955,1.8961,1.8985,1.8988,1.9002,1.8996,1.8984,1.8987,1.8956,1.8984,1.8936,1.8973,1.8939,1.8945,1.8938,1.8941,1.8941,1.8888,1.8965,1.9095,1.9107,1.8942,1.894,1.8939,0,1.901,1.9029,1.9063,1.9064,1.9046,1.9063,1.9056,1.9048,1.9054,1.9057,1.9061,1.9068,1.9072,1.9078,1.905,1.9019,1.909,1.9041,1.908,1.9081,1.9096,1.9096,1.9228,1.9103,1.9103,1.9102,1.9102,0,1.9114,1.9149,1.9107,1.9128,1.9165,1.9129,1.9167,1.9156,1.9148,1.9166,1.9126,1.9144,1.9107,1.9121,1.91,1.9132,1.9135,1.9125,1.9119,1.9128,1.9129,1.9131,1.9124,1.9106,1.9105,1.9104,1.9104,0,1.9228,1.9202,1.9236,1.9216,1.9211,1.924,1.9222,1.9241,1.9223,1.9246,1.9249,1.9222,1.9236,1.9209,1.9221,1.9206,1.9251,1.9237,1.9253,1.9248,1.9288,1.9284,1.9425,1.9441,1.9307,1.9309,1.931,0,1.9296,1.9321,1.9303,1.9311,1.9306,1.9321,1.9326,1.9292,1.93,1.9294,1.9313,1.9323,1.933,1.9354,1.9336,1.9343,1.9328,1.9377,1.9329,1.9337,1.9327,1.9325,1.9327,1.9387,1.9388,1.939,1.9391,0,1.9417,1.9402,1.9411,1.9415,1.9422,1.9424,1.9423,1.9433,1.9396,1.9407,1.942,1.9425,1.9435,1.9445,1.9448,1.9442,1.941,1.9406,1.9415,1.9424,1.9432,1.9426,1.9278,1.9403,1.9402,1.9401,1.94,1.94,1.9509,1.9529,1.9518,1.9529,1.9524,1.9524,1.954,1.9523,1.9533,1.9538,1.9518,1.9535,1.9527,1.9528,1.9524,1.9537,1.9515,1.9529,1.9532,1.9536,1.9542,1.9431,1.9538,1.9538,1.9537,1.9537,1.9537,0,1.9628,1.9618,1.9628,1.9627,1.9635,1.9604,1.9601,1.961,1.9625,1.962,1.9627,1.9641,1.9651,1.9632,1.9639,1.9653,1.9638,1.9655,1.9653,1.9652,1.9562,1.9552,1.9667,1.9667,1.9667,1.9667,1.9667,1.9667,1.969,1.972,1.9704,1.9732,1.9722,1.9738,1.9738,1.9737,1.9733,1.975,1.9758,1.9745,1.9734,1.9739,1.9747,1.9741,1.9744,1.9767,1.9756,1.9671,1.9659,1.9647,1.9637,1.9768,1.9768,1.9845,1.9845,1.9846]},{"header":{"parameterUnit":"m.s-1","parameterCategory":1,"la1":30.2991,"la2":30.254,"lo1":-89.0895,"lo2":-89.0444,"dy":0.0017,"dx":0.0017,"nx":28,"ny":28,"refTime":"2023-07-29T03:00:00:Z","depth":0,"parameterNumber":3,"parameterNumberName":"V-component_of_WINDS"},"data":[0,0,0,0,0,0,0,0,0,0,0,0,0,0,0,0,0,0,0,0,0,0,0,0,0,0,0,0,0,0,0,0,0,0,0,0,0,0,0,0,0,0,0,0,0,0,0,0,0,0,0,0,0,0,0,0,0,0,-0.7481,-0.7481,0,-0.7472,-0.7472,-0.7472,-0.7463,-0.7463,-0.7463,-0.7463,-0.7452,-0.7452,-0.7452,0,0,0,0,0,0,0,0,0,0,0,0,0,-0.749,-0.749,-0.7481,-0.7481,-0.7481,-0.7472,-0.7472,-0.7472,-0.7463,-0.7463,-0.7463,-0.7463,-0.7452,-0.7452,-0.7452,0,0,0,0,0,0,0,0,0,0,0,0,0,-0.7484,-0.749,-0.7481,-0.7476,-0.7475,-0.7472,-0.7472,-0.7472,-0.7463,-0.7463,-0.7463,-0.7463,-0.7452,-0.7452,-0.7452,-0.7453,0,0,-0.7451,-0.7451,0,0,0,0,0,0,0,0,-0.7484,-0.7484,-0.7477,-0.7476,-0.7475,-0.7469,-0.7471,-0.7466,-0.7463,-0.7468,-0.7463,-0.7463,-0.7458,-0.7457,-0.7455,-0.7453,-0.7452,-0.7451,-0.745,-0.745,-0.745,0,0,0,0,0,0,0,-0.7485,-0.7484,-0.7478,-0.7477,-0.7476,-0.7473,-0.7472,-0.747,-0.7464,-0.7467,-0.7467,-0.7466,-0.7457,-0.7456,-0.7455,-0.7452,-0.7451,-0.745,-0.745,-0.745,-0.7451,-0.7451,0,0,0,0,0,0,-0.7486,-0.7485,-0.7478,-0.7477,-0.748,-0.7473,-0.7472,-0.7471,-0.7464,-0.7462,-0.7466,-0.7465,-0.7456,-0.7455,-0.7455,-0.7457,-0.745,-0.745,-0.745,-0.7451,-0.7451,-0.7451,0,0,0,0,0,0,-0.7487,-0.7486,-0.7478,-0.7481,-0.748,-0.7473,-0.7472,-0.7471,-0.7469,-0.7463,-0.7461,-0.7466,-0.7456,-0.7455,-0.7454,-0.7456,-0.745,-0.745,-0.7451,-0.7451,-0.7451,-0.746,0,0,0,0,0,0,-0.7487,-0.7486,-0.7487,-0.7481,-0.748,-0.7478,-0.7472,-0.7471,-0.7469,-0.7468,-0.7462,-0.7461,-0.7456,-0.7454,-0.7454,-0.7456,-0.745,-0.7451,-0.7451,-0.7451,-0.746,-0.7461,-0.7462,0,0,0,0,0,-0.7487,-0.7489,-0.7487,-0.7486,-0.748,-0.7478,-0.7477,-0.7472,-0.7469,-0.747,-0.7466,-0.7461,-0.7456,-0.7454,-0.7453,-0.7455,-0.745,-0.7451,-0.7451,-0.7459,-0.7461,-0.7462,0,0,0,0,0,0,-0.7494,-0.7488,-0.7485,-0.7486,-0.7483,-0.7477,-0.7477,-0.7474,-0.7471,-0.747,-0.7463,-0.7462,-0.7462,-0.7458,-0.7457,-0.7457,-0.7453,-0.7453,-0.7459,-0.746,-0.7461,-0.7462,-0.7449,0,0,0,0,0,-0.7496,-0.7495,-0.749,-0.749,-0.7489,-0.7483,-0.7482,-0.7479,-0.7475,-0.7473,-0.7469,-0.7465,-0.7463,-0.7462,-0.7459,-0.746,-0.7458,-0.7461,-0.7462,-0.7463,-0.7463,-0.7463,-0.7465,-0.7453,-0.7453,-0.7453,0,0,-0.7499,-0.7496,-0.7495,-0.7491,-0.7489,-0.7488,-0.7482,-0.7481,-0.748,-0.7473,-0.7472,-0.7469,-0.7464,-0.7464,-0.7464,-0.7462,-0.7466,-0.7463,-0.7464,-0.7463,-0.7464,-0.7465,-0.7466,-0.7453,-0.7453,-0.7453,0,0,-0.7504,-0.7502,-0.7502,-0.75,-0.7496,-0.7493,-0.7493,-0.7488,-0.7486,-0.7485,-0.748,-0.7479,-0.7475,-0.7472,-0.747,-0.7476,-0.7471,-0.7475,-0.748,-0.7481,-0.7482,-0.7483,-0.7485,-0.7486,-0.7475,-0.7475,-0.7475,0,-0.7508,-0.7507,-0.7503,-0.7502,-0.7501,-0.7496,-0.7496,-0.7494,-0.7489,-0.7488,-0.7486,-0.7482,-0.7478,-0.7478,-0.7479,-0.7478,-0.7478,-0.7476,-0.7482,-0.7483,-0.7484,-0.7486,-0.7487,-0.7476,-0.7476,-0.7476,-0.7476,0,-0.7513,-0.7512,-0.7513,-0.751,-0.7508,-0.7509,-0.7504,-0.7503,-0.75,-0.7497,-0.7497,-0.7492,-0.7489,-0.7489,-0.7486,-0.7488,-0.7487,-0.7484,-0.7479,-0.7485,-0.7487,-0.7488,-0.7477,-0.7476,-0.7476,-0.7476,0,0,-0.7521,-0.7517,-0.7517,-0.7516,-0.7512,-0.7511,-0.7511,-0.7509,-0.7509,-0.7506,-0.7506,-0.7504,-0.7501,-0.7499,-0.7495,-0.7496,-0.7501,-0.7492,-0.7492,-0.7494,-0.7505,-0.7507,-0.7508,-0.7499,-0.7499,-0.7499,-0.7505,0,-0.7526,-0.7526,-0.7523,-0.7524,-0.7523,-0.7519,-0.7519,-0.7516,-0.7514,-0.7513,-0.751,-0.7508,-0.7505,-0.7503,-0.7504,-0.75,-0.7503,-0.75,-0.7498,-0.7498,-0.7499,-0.7509,-0.7512,-0.7518,-0.7506,-0.7506,-0.7506,0,-0.7531,-0.753,-0.7531,-0.7528,-0.7528,-0.7528,-0.7526,-0.7526,-0.7523,-0.7521,-0.752,-0.7516,-0.7516,-0.7512,-0.7512,-0.751,-0.7509,-0.7507,-0.7507,-0.7507,-0.7502,-0.7509,-0.7519,-0.752,-0.7507,-0.7507,-0.7507,0,-0.7537,-0.7536,-0.7537,-0.7536,-0.7532,-0.7533,-0.7531,-0.7529,-0.7528,-0.7526,-0.7526,-0.7524,-0.7523,-0.7522,-0.7518,-0.7515,-0.7518,-0.7514,-0.7517,-0.7517,-0.7517,-0.7517,-0.7528,-0.7517,-0.7517,-0.7517,-0.7517,0,-0.7543,-0.7544,-0.754,-0.754,-0.7541,-0.7538,-0.7539,-0.7537,-0.7535,-0.7535,-0.7531,-0.7531,-0.7525,-0.7525,-0.7522,-0.7522,-0.7522,-0.752,-0.7519,-0.7521,-0.7521,-0.752,-0.7519,-0.7517,-0.7517,-0.7517,-0.7517,0,-0.7549,-0.7547,-0.7548,-0.7545,-0.7544,-0.7545,-0.7543,-0.7543,-0.7541,-0.7541,-0.7541,-0.7537,-0.7536,-0.7532,-0.753,-0.7528,-0.753,-0.7528,-0.7531,-0.7531,-0.7534,-0.7534,-0.7544,-0.7545,-0.7534,-0.7534,-0.7534,0,-0.7553,-0.7554,-0.7552,-0.7552,-0.7551,-0.7551,-0.755,-0.7547,-0.7547,-0.7545,-0.7545,-0.7545,-0.7544,-0.7543,-0.754,-0.7538,-0.7537,-0.754,-0.7536,-0.7538,-0.7537,-0.7537,-0.7537,-0.7541,-0.7541,-0.7541,-0.7541,0,-0.756,-0.7559,-0.7559,-0.7558,-0.7558,-0.7558,-0.7557,-0.7557,-0.7553,-0.7553,-0.7553,-0.7552,-0.7551,-0.755,-0.7549,-0.7547,-0.7544,-0.7543,-0.7544,-0.7545,-0.7546,-0.7546,-0.7534,-0.7542,-0.7542,-0.7542,-0.7542,-0.7542,-0.7565,-0.7566,-0.7565,-0.7565,-0.7564,-0.7564,-0.7565,-0.7563,-0.7563,-0.7562,-0.756,-0.756,-0.7558,-0.7556,-0.7555,-0.7555,-0.7553,-0.7553,-0.7554,-0.7554,-0.7555,-0.7547,-0.7554,-0.7554,-0.7554,-0.7554,-0.7554,0,-0.7572,-0.7571,-0.7571,-0.7571,-0.7571,-0.7569,-0.7568,-0.7569,-0.7569,-0.7568,-0.7568,-0.7568,-0.7567,-0.7565,-0.7564,-0.7565,-0.7563,-0.7565,-0.7564,-0.7564,-0.7556,-0.7556,-0.7566,-0.7566,-0.7566,-0.7566,-0.7566,-0.7566,-0.7575,-0.7577,-0.7576,-0.7577,-0.7577,-0.7577,-0.7577,-0.7577,-0.7576,-0.7577,-0.7577,-0.7575,-0.7574,-0.7573,-0.7573,-0.7572,-0.7572,-0.7574,-0.7573,-0.7566,-0.7564,-0.7563,-0.7563,-0.7574,-0.7574,-0.758,-0.758,-0.7581]}]]